Location: Unspecified
(51.6250°N, 0.8230°E)
Time: 10:20:58
(UTC+01:00)

Okean 3 - Pass Details

Date: 09 August 2020
Orbit: 576 x 601 km, 82.5° (Epoch: 23 September)

Event Time Altitude Azimuth Distance (km) Brightness Sun altitude
Rises 22:13:51 0° 358° (N) 2,849 7.8 -13.6°
Reaches altitude 10° 22:16:28 10° 14° (NNE) 1,946 6.6 -13.8°
Maximum altitude 22:19:54 23° 67° (ENE) 1,300 5.0 -14.2°
Enters shadow 22:21:47 17° 102° (ESE) 1,524 5.1 -14.4°
